Weather History for Key West, FL

Change the Weather History Date:

Friday, March 22, 2013

  Actual Average Record
Temperature  
Mean Temperature 75 °F 74 °F  
Max Temperature 80 °F 79 °F 87 °F (1977)
Min Temperature 69 °F 69 °F 53 °F (1996)
Degree Days  
Heating Degree Days 0 0  
Month to date heating degree days 12 0  
Since 1 July heating degree days 24 66  
Cooling Degree Days 10 9  
Month to date cooling degree days 105 180  
Year to date cooling degree days 639 528  
Growing Degree Days 24 (Base 50)    
Moisture  
Dew Point 69 °F    
Average Humidity 84    
Maximum Humidity 94    
Minimum Humidity 73    
Precipitation  
Precipitation 0.00 in 0.05 in 0.78 in (1941)
Month to date precipitation 1.46 1.53  
Year to date precipitation 3.00 5.06  
Snow  
Snow 0.00 in - - ()
Month to date snowfall 0.0  
Since 1 July snowfall 0.0  
Snow Depth 0.00 in    
Sea Level Pressure  
Sea Level Pressure 29.94 in    
Wind  
Wind Speed 6 mph (SE)    
Max Wind Speed 10 mph    
Max Gust Speed 15 mph    
Visibility 10 miles    
Events      
T = Trace of Precipitation, MM = Missing Value Source: NWS Daily Summary

Daily Weather History Graph

Daily Weather History Graph

Search for Another Location

Airport:

Trip Planner

Search our weather history database for the weather conditions in past years. The results will help you decide how hot, cold, wet, or windy it might be!

Date:

Astronomy

Mar. 22, 2013 Rise Set
Actual Time 7:28 AM EDT 7:39 PM EDT
Civil Twilight 7:05 AM EDT 8:01 PM EDT
Nautical Twilight 6:39 AM EDT 8:28 PM EDT
Astronomical Twilight 6:12 AM EDT 8:55 PM EDT
Moon 3:29 PM EDT 4:01 AM EDT
Length of Visible Light 12h 55m
Length of Day
12h 10m
Waxing Gibbous, 77% of the Moon is Illuminated
Mar 22
Waxing Gibbous
Mar 27
Full
Apr 3
Last Quarter
Apr 10
New
Apr 18
First Quarter

Hourly Weather History & Observations

Time (EDT) Temp. Dew Point Humidity Pressure Visibility Wind Dir Wind Speed Gust Speed Precip Events Conditions
12:53 AM 70.0 °F 60.1 °F 71% 29.96 in 10.0 mi NNE 3.5 mph - N/A   Overcast
1:53 AM 70.0 °F 60.1 °F 71% 29.93 in 10.0 mi NE 3.5 mph - N/A   Mostly Cloudy
2:53 AM 69.1 °F 60.1 °F 73% 29.92 in 10.0 mi ENE 4.6 mph - N/A   Mostly Cloudy
3:53 AM 70.0 °F 61.0 °F 73% 29.90 in 10.0 mi East 4.6 mph - N/A   Overcast
4:53 AM 69.1 °F 62.1 °F 78% 29.90 in 10.0 mi Calm Calm - N/A   Partly Cloudy
5:53 AM 70.0 °F 63.0 °F 78% 29.90 in 10.0 mi East 3.5 mph - N/A   Overcast
6:53 AM 71.1 °F 64.9 °F 81% 29.92 in 10.0 mi ESE 4.6 mph - N/A   Clear
7:53 AM 73.0 °F 66.9 °F 81% 29.93 in 10.0 mi SE 5.8 mph - N/A   Clear
8:53 AM 73.9 °F 68.0 °F 82% 29.95 in 10.0 mi SE 6.9 mph - N/A   Partly Cloudy
9:53 AM 75.9 °F 69.1 °F 79% 29.97 in 10.0 mi SE 9.2 mph - N/A   Mostly Cloudy
10:53 AM 77.0 °F 69.1 °F 76% 29.98 in 10.0 mi SE 8.1 mph - N/A   Partly Cloudy
11:53 AM 78.1 °F 71.1 °F 79% 29.99 in 10.0 mi SE 6.9 mph - N/A   Partly Cloudy
12:53 PM 78.1 °F 72.0 °F 81% 29.99 in 10.0 mi SSE 8.1 mph - N/A   Mostly Cloudy
1:53 PM 79.0 °F 72.0 °F 79% 29.96 in 10.0 mi SSE 6.9 mph - N/A   Partly Cloudy
2:53 PM 79.0 °F 72.0 °F 79% 29.95 in 10.0 mi SE 6.9 mph - N/A   Clear
3:53 PM 79.0 °F 72.0 °F 79% 29.93 in 10.0 mi SE 8.1 mph - N/A   Clear
4:53 PM 79.0 °F 73.0 °F 82% 29.92 in 10.0 mi SE 6.9 mph - N/A   Clear
5:53 PM 78.1 °F 72.0 °F 81% 29.92 in 10.0 mi ESE 6.9 mph - N/A   Clear
6:53 PM 78.1 °F 72.0 °F 81% 29.93 in 10.0 mi ESE 6.9 mph - N/A   Clear
7:53 PM 75.9 °F 72.0 °F 87% 29.94 in 10.0 mi ESE 8.1 mph - N/A   Clear
8:53 PM 75.9 °F 73.0 °F 91% 29.95 in 10.0 mi SE 8.1 mph - N/A   Clear
9:53 PM 75.9 °F 73.0 °F 91% 29.97 in 10.0 mi SSE 8.1 mph - N/A   Clear
10:53 PM 75.9 °F 73.0 °F 91% 29.98 in 10.0 mi SSE 9.2 mph - N/A   Clear
11:53 PM 75.9 °F 73.0 °F 91% 29.98 in 10.0 mi SSE 8.1 mph - N/A   Clear